RH
79 76 75 79 80 79 78 76 77 76 76 82 88 89 88 86 85 88 90 91 91 88 88 91 88 84 85 81 77 76 77 83 86 87 89 81 72 69 68 70 71 75 77 76 76 75 75 77 79 79 78 74 74 76 77 79 81 81 78 76 76 78 81 83 82 73 68 78 82 82 85 84 85 87 86 87 88 87 83 70 55 47 45 43 50
78 75 77 80 80 81 80 78 75 74 77 76 76 79 83 86 84 87 91 91 91 86 85 89 85 80 83 82 75 70 69 78 86 87 86 85 80 72 68 71 74 76 77 78 79 79 78 78 79 80 78 78 78 79 81 81 81 84 84 83 84 85 85 83 81 77 72 74 73 75 82 83 82 85 88 90 89 88 89 87 76 60 51 46 43
78 75 76 79 81 85 83 80 78 76 77 75 72 71 75 79 77 78 82 84 84 80 82 86 83 79 83 83 77 71 66 68 76 81 83 88 92 86 75 73 78 80 80 82 84 83 83 82 81 81 80 81 81 82 84 83 81 82 82 83 88 91 93 88 80 78 76 74 72 72 79 83 82 86 91 93 93 90 88 91 91 82 68 57 48
78 76 78 82 82 82 80 80 81 79 76 73 73 72 73 73 69 69 69 71 74 75 80 86 84 82 84 83 78 75 73 69 71 74 77 82 92 97 89 82 82 85 87 88 87 86 85 84 83 82 81 80 80 82 82 80 78 78 79 80 83 88 92 92 86 80 77 76 74 72 76 81 85 91 93 92 94 93 91 90 91 92 86 73 60
80 78 82 84 82 79 77 78 79 78 76 76 77 76 77 75 71 70 68 70 77 78 81 86 86 83 85 84 77 74 74 72 74 75 76 80 87 95 95 94 92 90 90 89 87 86 85 82 81 80 79 78 79 80 79 76 73 73 77 79 79 83 89 94 92 83 76 75 75 73 73 76 81 91 94 93 95 94 93 94 93 94 95 90 76
84 83 85 85 83 81 78 77 76 78 79 80 80 78 79 76 73 73 70 74 81 80 82 86 87 86 86 82 72 67 70 72 77 79 80 84 87 91 94 95 94 92 89 87 85 83 83 81 78 77 76 77 79 81 80 77 75 73 75 77 78 83 88 92 94 86 77 73 73 73 74 74 75 84 92 95 97 96 95 97 98 97 98 99 92
84 86 86 87 88 85 82 79 76 77 78 79 78 76 75 69 69 70 66 72 82 84 85 86 89 92 91 86 74 71 75 78 81 83 84 87 88 90 90 89 89 87 84 81 80 78 77 75 72 73 74 76 79 80 80 79 78 77 77 78 79 84 89 91 91 88 82 77 73 72 72 73 73 79 91 97 97 98 99 99 100 100 99 99 100
83 86 86 86 89 85 81 79 75 73 73 75 75 74 74 67 64 63 62 73 86 88 85 87 95 97 95 90 81 79 82 82 84 85 86 87 87 85 83 81 77 73 70 66 62 59 54 50 48 49 53 59 66 71 75 78 79 78 78 81 83 85 88 89 91 90 88 83 79 75 73 73 72 75 88 97 97 97 99 99 99 99 100 100 99
83 85 86 87 89 84 80 83 81 74 71 72 71 71 73 69 63 62 64 76 90 91 85 90 99 99 95 90 84 85 86 85 86 84 85 84 81 79 76 72 65 57 50 42 35 28 21 17 15 17 20 25 32 39 46 54 61 64 67 74 81 85 87 88 90 89 88 86 82 80 79 78 75 74 84 96 99 98 98 98 96 96 98 100 100
85 85 86 86 86 85 88 94 87 76 72 70 69 68 69 69 65 64 65 72 83 86 85 92 98 98 95 90 87 88 87 86 85 84 84 82 78 74 68 58 46 34 24 16 10 6 4 3 3 3 4 5 6 9 11 17 23 27 33 42 50 60 69 75 80 82 84 84 84 82 81 81 81 78 80 91 98 99 99 99 97 97 95 94 97
88 86 86 85 86 90 96 95 81 73 70 70 73 69 67 66 63 64 66 67 67 67 79 94 97 97 93 89 90 89 88 86 85 85 82 78 71 60 46 31 18 10 6 4 3 2 2 2 2 2 2 2 2 2 2 2 4 4 6 9 13 18 25 34 41 48 54 60 65 69 72 76 81 82 81 84 92 97 98 98 99 99 96 93 93
88 87 87 90 95 98 95 83 72 70 69 71 74 71 67 65 65 67 64 57 48 53 81 98 96 98 95 88 89 90 89 89 86 84 77 65 50 32 18 8 4 3 2 2 2 2 2 2 2 3 2 3 2 3 3 2 2 3 2 2 3 3 4 6 8 11 15 19 24 30 37 46 57 70 80 85 89 93 95 96 98 99 97 93 94
88 90 92 97 101 96 85 74 69 70 69 69 70 68 67 67 68 63 52 42 34 45 80 99 93 95 99 93 93 92 88 88 84 74 60 41 23 10 4 3 2 3 2 3 3 2 2 2 2 2 3 4 4 3 3 4 3 3 3 3 3 3 3 3 3 3 3 3 4 5 8 12 19 31 52 72 85 93 95 92 93 99 98 91 91
92 94 98 100 96 87 78 70 67 65 64 65 64 65 66 65 59 46 36 32 28 33 57 85 90 87 91 91 94 93 86 86 77 58 41 21 7 4 2 3 3 3 3 2 3 3 3 3 3 3 3 3 3 4 4 4 5 4 4 4 4 4 4 4 4 4 4 4 3 3 3 3 4 6 15 33 56 77 89 90 89 94 98 93 88
97 98 100 96 88 79 72 64 60 58 59 61 61 63 60 52 41 31 29 29 26 24 29 57 80 81 81 81 86 90 90 88 65 36 22 8 2 5 3 3 3 2 4 3 3 3 3 4 3 3 3 4 4 4 5 5 5 6 5 5 5 5 5 5 5 5 5 6 5 5 4 3 3 4 3 6 17 36 56 73 82 86 92 94 91
99 101 97 89 78 70 63 54 51 53 58 62 59 54 44 34 28 24 28 29 26 21 17 33 59 74 79 72 71 74 78 85 65 33 19 7 2 4 2 4 4 3 4 4 5 4 4 4 4 4 4 4 5 4 5 6 6 6 6 6 7 7 8 8 8 8 7 7 7 6 6 5 4 5 6 5 4 8 17 32 49 63 78 88 88
100 101 93 80 68 60 55 50 50 55 60 57 46 37 28 25 23 18 20 23 19 14 12 15 29 53 69 71 72 59 53 72 71 47 28 12 4 3 3 3 2 4 4 4 5 5 6 6 4 5 5 4 6 6 6 7 6 7 7 8 8 9 10 11 11 12 12 12 11 10 9 8 7 7 7 9 8 5 4 6 12 24 43 65 78
99 97 86 71 61 57 54 52 56 58 53 41 30 25 22 19 17 12 9 10 11 10 8 5 9 21 34 49 57 41 34 57 67 50 30 17 7 2 4 5 3 4 4 4 6 5 6 8 6 5 6 6 5 5 6 8 8 9 9 10 11 12 12 12 13 14 15 16 16 16 15 13 11 10 9 11 11 11 9 6 5 5 10 26 49
95 90 79 65 59 59 57 57 58 50 37 27 22 19 16 12 8 6 4 3 8 10 5 3 4 5 5 13 17 10 14 37 51 48 42 41 30 12 3 3 3 5 6 5 5 6 5 6 9 7 6 6 5 7 10 10 10 10 11 12 13 13 13 13 14 15 16 17 18 20 20 19 18 15 14 13 13 14 14 12 9 7 6 6 14
90 81 72 64 63 63 60 57 49 36 27 21 17 12 8 7 3 2 3 2 5 6 4 3 3 3 2 2 2 0 3 11 21 31 41 49 46 36 24 12 5 2 5 7 5 5 7 4 7 8 6 7 10 14 15 12 11 11 11 13 13 13 13 14 14 14 15 16 18 20 22 24 24 22 21 18 15 16 18 18 15 12 10 9 6
83 74 68 67 67 63 59 52 38 27 22 15 10 6 3 3 2 2 3 2 2 2 3 3 2 2 3 2 3 3 3 1 2 12 27 34 36 43 45 39 31 13 1 7 7 4 6 4 8 13 14 18 22 24 20 13 10 10 10 11 12 12 13 14 14 14 14 15 16 17 20 24 27 28 27 24 22 21 20 21 22 20 15 13 11
78 72 71 71 67 63 56 44 29 21 16 9 5 3 2 2 2 2 2 2 3 2 2 2 2 3 3 3 7 9 8 5 2 7 22 32 32 34 37 42 48 33 9 3 5 7 9 10 20 22 17 22 26 23 20 12 8 11 10 10 11 12 13 13 13 14 15 17 18 18 19 21 25 30 31 30 28 27 25 23 24 25 24 18 14
79 76 75 71 65 60 48 33 22 16 10 5 3 2 2 3 2 2 3 2 2 2 3 2 2 2 2 2 4 6 7 4 3 7 15 28 36 36 30 32 41 37 21 10 11 21 23 23 34 33 23 24 21 13 11 9 9 11 9 9 10 10 11 11 12 14 16 20 23 24 24 23 24 27 31 34 33 33 32 29 27 26 28 26 19
87 82 75 68 61 51 36 23 16 11 6 4 3 3 2 2 2 2 2 2 3 2 2 2 2 2 3 3 2 2 3 2 2 4 4 11 26 36 34 33 38 38 33 30 33 37 34 30 34 35 33 31 23 13 9 7 9 10 8 9 9 9 10 10 11 13 15 20 25 29 32 32 31 29 30 33 35 37 37 35 34 29 29 31 27
94 87 78 66 52 38 25 18 13 8 6 4 3 3 3 3 3 3 2 2 3 2 2 2 2 3 2 2 3 2 3 3 2 3 3 2 10 24 33 38 42 39 35 36 38 36 33 28 27 30 35 30 19 15 11 8 9 8 7 8 8 9 9 9 11 12 15 21 25 31 36 38 40 38 36 36 36 38 38 39 39 35 32 32 31
93 86 81 65 41 25 18 14 10 7 5 4 3 3 3 3 3 2 3 3 2 2 3 2 2 3 3 3 3 3 2 3 3 2 4 3 1 8 25 43 46 37 31 30 30 31 30 26 27 31 31 23 18 15 10 8 8 7 8 8 7 8 9 9 10 12 17 23 28 33 38 41 44 45 45 44 43 43 42 41 42 40 38 35 33
88 73 67 51 28 17 15 12 9 7 4 4 4 3 4 3 3 3 2 3 3 2 2 3 3 3 3 3 2 3 3 3 4 3 3 5 4 3 14 33 41 36 32 31 28 30 31 28 28 31 27 21 19 14 7 6 7 7 6 6 7 7 8 8 9 14 20 25 31 37 40 44 46 48 49 49 48 48 48 47 46 45 43 40 37
77 53 42 30 18 15 13 10 9 6 4 5 4 4 4 3 3 3 3 3 3 3 3 3 3 3 3 3 3 3 3 2 3 4 4 4 5 4 5 16 29 34 33 32 32 33 31 29 30 28 25 22 15 8 6 5 5 5 5 6 7 6 6 8 11 16 21 26 33 39 43 47 49 51 51 52 50 48 49 49 50 50 48 46 41
60 37 25 18 15 14 11 9 8 5 4 5 4 4 4 4 4 3 3 3 3 3 4 3 3 3 3 3 3 3 3 3 4 4 5 5 5 7 6 6 18 32 35 34 38 37 26 25 33 28 18 16 13 5 3 5 6 6 6 5 5 6 7 8 10 15 23 34 42 47 52 54 55 56 55 55 54 51 50 50 51 51 49 48 45
43 24 18 14 14 13 11 9 6 5 5 5 5 5 5 4 4 4 3 4 3 3 4 3 4 3 3 3 3 4 3 3 5 4 4 6 6 9 10 8 10 20 33 40 43 41 30 27 33 29 18 12 10 8 7 14 19 15 9 5 7 11 9 9 16 26 38 52 59 60 62 64 64 63 61 62 61 58 55 54 55 56 55 54 48
29 17 14 12 13 12 11 8 5 6 6 5 6 6 5 5 4 4 4 4 4 4 4 4 4 3 4 4 3 4 4 4 4 5 5 5 9 14 17 26 25 17 31 51 50 40 38 38 33 30 26 14 9 16 21 26 30 27 19 14 16 19 18 25 37 46 54 65 69 69 71 72 71 69 68 67 66 64 61 61 65 70 74 72 59
19 15 12 10 11 9 9 7 6 7 6 6 7 7 6 6 5 5 5 5 6 6 5 5 5 5 4 4 4 4 5 8 7 7 7 4 11 21 26 41 49 37 40 58 58 43 37 38 33 32 32 20 16 27 32 30 32 35 32 26 29 34 39 50 58 60 65 70 71 73 75 75 74 74 74 73 72 71 68 68 70 72 75 75 67
14 13 9 8 9 7 7 8 7 7 7 7 8 8 8 6 6 6 7 8 8 7 8 7 6 6 5 4 5 5 5 10 11 10 10 10 20 33 37 47 57 54 51 55 57 50 36 29 31 35 34 27 25 32 36 36 39 44 41 37 43 52 58 65 68 66 69 70 71 74 74 75 76 77 78 78 79 79 76 75 74 73 73 72 71
10 11 6 6 8 7 7 7 7 7 8 9 9 10 9 7 6 7 9 12 10 10 12 11 7 6 7 6 5 5 4 7 11 11 10 15 28 35 38 49 55 50 48 49 54 55 43 31 33 38 38 35 34 38 42 44 47 50 48 46 55 62 64 66 67 66 68 69 72 75 74 77 80 82 83 84 86 87 86 85 82 79 79 77 76
8 9 6 7 8 6 7 7 7 9 11 11 10 10 8 7 8 9 13 14 14 21 27 23 14 9 9 8 6 8 8 7 14 15 8 12 26 32 35 47 48 35 30 39 51 56 49 38 35 39 44 45 44 44 46 48 51 52 52 52 57 61 61 63 66 67 67 69 73 76 78 82 84 85 87 88 90 92 94 95 91 87 85 82 79
6 7 6 6 7 7 8 11 11 11 13 11 9 9 8 8 11 13 15 17 24 38 40 29 21 17 17 15 10 11 14 15 20 21 13 11 21 29 32 40 42 28 20 31 43 49 50 46 40 41 48 50 47 47 49 50 50 52 55 57 57 57 59 64 67 66 66 69 74 79 83 85 87 88 90 91 92 93 94 96 94 91 90 89 85
5 6 3 4 9 9 11 18 18 12 11 10 7 8 9 11 16 19 22 28 36 38 30 21 19 20 20 19 15 14 17 20 22 20 12 8 16 25 24 27 32 23 19 29 36 40 48 50 44 44 48 49 49 51 51 48 49 54 59 58 56 56 60 65 67 66 67 71 76 81 85 87 89 90 91 93 93 92 93 93 93 93 93 93 91
5 5 2 3 9 12 16 26 29 20 14 13 11 12 14 15 19 22 28 37 39 32 28 29 28 25 21 16 12 13 16 18 16 12 8 6 15 23 17 15 20 17 19 28 29 33 44 46 44 45 46 46 51 52 49 48 54 58 57 55 54 56 62 66 67 66 68 73 78 83 85 86 90 91 91 93 93 92 93 93 94 95 93 94 94
6 3 3 3 9 20 27 32 34 27 18 17 19 20 22 23 22 22 27 37 36 28 33 41 35 27 23 17 13 12 12 13 10 7 6 6 12 21 16 11 12 11 16 24 24 29 39 42 43 44 43 46 51 50 48 51 58 58 56 56 55 57 64 68 66 66 70 76 82 86 87 88 92 92 92 94 93 91 91 93 95 95 94 95 97
10 6 5 2 6 21 29 30 33 28 19 20 21 21 26 29 28 28 33 39 34 24 29 38 34 29 27 23 20 13 6 7 7 6 6 5 9 16 13 9 9 8 12 19 21 25 30 37 42 41 42 47 48 48 50 54 58 57 58 61 61 61 66 68 66 68 72 78 84 87 89 92 94 93 93 94 94 92 90 93 95 95 95 96 97
14 9 9 5 5 12 14 16 22 20 20 26 24 21 30 36 38 42 46 46 41 36 38 37 30 33 36 24 13 10 7 7 6 6 7 6 6 9 8 7 8 8 9 13 16 19 24 34 41 41 44 48 46 47 52 56 58 58 60 64 64 62 66 68 68 71 74 79 86 91 93 96 98 98 96 93 92 92 91 92 92 91 93 96 97
16 9 8 7 6 5 3 7 9 10 19 26 18 14 26 41 52 55 49 47 50 50 51 48 36 36 42 32 13 6 6 7 7 6 7 8 7 8 8 8 8 9 9 10 11 15 21 29 37 43 47 48 46 49 53 55 58 60 62 64 62 62 67 70 69 71 75 82 91 97 98 99 98 96 95 92 89 88 87 87 88 89 92 95 96
17 7 6 7 8 4 3 5 5 8 16 16 11 10 14 28 46 56 53 51 55 54 54 59 55 47 48 42 23 12 10 8 8 8 8 8 8 8 9 9 9 10 10 11 10 12 15 19 28 42 49 46 43 47 53 55 56 60 63 62 61 67 72 69 66 68 76 87 97 100 98 96 96 94 92 90 87 85 84 85 87 88 88 90 92
14 6 5 10 10 6 4 4 5 11 13 8 10 12 9 11 24 48 62 53 48 55 58 63 69 63 55 40 18 13 15 8 8 14 13 11 9 9 10 10 10 11 11 12 13 12 13 14 20 32 41 40 37 41 47 49 52 60 61 58 63 73 72 67 67 69 77 90 99 100 98 96 96 95 92 88 87 87 86 87 90 90 90 91 93
12 8 11 13 11 6 5 5 7 11 10 7 9 7 8 10 6 25 52 45 40 56 56 49 54 51 44 36 23 18 16 8 9 14 13 12 12 11 12 13 13 14 13 13 14 13 14 15 16 19 23 25 26 29 32 34 42 55 59 59 70 77 71 68 70 72 82 95 100 100 100 98 97 97 95 92 90 89 90 92 93 94 95 95 95
14 18 19 13 8 6 5 6 10 12 5 5 9 4 6 10 -1 14 50 49 37 40 30 20 25 20 16 25 28 24 16 9 10 11 9 12 13 11 14 15 15 15 13 14 16 16 16 15 14 13 13 15 17 18 20 25 35 49 59 67 76 76 69 67 67 71 86 98 100 100 100 99 99 100 99 96 93 92 93 94 95 97 98 98 98
22 24 16 7 5 5 5 6 9 10 4 4 8 3 4 8 2 16 44 37 16 14 9 6 11 9 5 10 14 15 12 8 10 11 10 13 12 12 15 15 14 15 16 17 16 16 18 17 15 15 13 13 14 13 15 21 29 41 57 70 73 69 65 63 64 73 90 100 100 100 101 99 99 100 98 98 98 97 95 95 97 99 99 99 99
25 17 6 4 5 4 4 6 6 5 4 5 6 4 6 8 4 9 19 13 4 6 7 5 5 6 7 7 7 9 10 8 10 12 12 13 13 14 16 14 14 16 19 19 17 17 19 19 17 17 14 13 15 13 13 17 23 36 56 66 65 64 64 62 66 79 93 99 100 100 101 100 100 100 98 95 96 96 96 96 98 99 99 99 99
19 8 3 5 5 3 3 5 4 3 5 5 6 6 5 5 7 7 7 9 11 9 6 6 7 6 6 7 8 9 10 11 12 12 14 15 15 16 17 16 15 17 20 19 17 17 18 19 20 19 17 16 15 14 14 18 24 38 57 64 62 65 67 62 67 85 96 100 100 100 100 100 99 100 99 97 97 96 95 96 97 99 100 99 97
14 7 5 4 4 4 4 4 3 4 5 4 5 7 4 5 8 7 11 21 19 10 7 7 6 7 7 7 9 10 11 13 13 14 15 16 16 18 18 17 18 23 24 18 17 19 19 19 20 18 18 18 16 19 27 31 31 38 54 63 63 66 68 64 69 86 97 100 99 99 100 100 98 98 99 100 99 92 90 96 98 99 101 99 97
17 9 5 4 4 4 3 4 4 3 5 4 5 5 4 7 7 5 20 34 21 8 11 9 5 7 8 8 9 10 13 14 14 16 17 16 19 20 19 21 23 24 23 19 20 21 18 20 27 32 35 33 28 33 41 41 36 34 43 59 66 67 68 68 72 83 93 99 100 99 100 100 99 96 95 99 97 85 83 95 101 100 100 100 99
Wind_Speed
2 2 1 1 2 2 2 2 2 2 2 3 2 1 1 1 1 2 2 2 2 2 2 3 3 3 3 4 5 4 5 4 4 4 4 8 11 12 13 12 13 12 12 12 11 11 10 10 10 10 12 13 14 13 13 13 13 13 12 13 13 13 14 14 15 15 14 12 12 12 12 10 10 10 11 12 12 12 11 10 11 12 13 13 13
3 3 2 2 2 2 2 2 2 2 2 2 1 1 1 2 2 2 2 2 3 3 3 3 3 4 4 5 6 6 5 4 4 4 4 6 8 11 12 12 12 12 11 11 11 11 11 11 11 12 13 13 14 14 14 14 14 14 14 13 13 13 14 15 15 16 16 14 12 12 12 11 10 11 12 13 14 14 13 11 11 11 12 13 13
4 4 3 3 3 2 2 1 1 1 2 2 1 1 1 1 2 2 2 3 3 4 3 3 3 4 4 5 6 6 6 5 4 3 4 4 4 7 10 11 10 11 11 10 10 10 10 11 11 12 13 13 13 14 14 15 15 15 15 13 12 12 12 14 15 14 15 15 14 13 13 13 12 12 13 14 14 15 14 13 12 12 12 12 13
5 4 3 3 3 3 2 1 1 1 1 1 2 2 2 1 2 2 3 3 4 5 4 3 3 3 4 5 5 5 5 5 5 5 4 3 2 3 6 8 8 9 9 9 9 9 10 11 11 12 12 13 13 13 13 15 16 16 15 14 13 12 12 13 14 14 14 15 14 14 14 14 14 15 14 14 15 14 14 14 14 13 12 13 13
4 3 3 3 3 2 2 2 1 1 1 1 2 2 2 2 3 3 3 4 4 5 4 4 4 3 3 3 4 4 4 5 4 4 4 3 1 1 2 4 5 7 8 8 9 10 11 11 12 12 13 14 14 14 14 15 17 18 16 16 16 15 13 12 12 14 14 14 14 14 15 15 15 15 15 16 16 15 15 15 16 15 14 13 14
3 3 2 2 2 2 2 2 1 1 1 1 2 2 2 2 3 4 4 5 4 4 4 4 4 4 2 2 5 5 4 4 3 3 3 3 3 2 2 2 3 6 8 8 9 10 11 11 11 12 13 13 14 14 14 15 17 18 17 17 17 16 15 14 14 15 15 15 15 14 15 16 16 15 14 16 17 17 17 17 17 18 17 16 14
3 3 2 2 2 1 1 1 1 0 1 2 2 2 2 4 4 4 5 4 4 4 4 4 2 2 2 2 4 4 3 3 2 2 2 2 2 2 3 4 4 6 7 9 9 10 10 10 11 11 12 13 13 14 14 16 17 18 18 17 18 17 16 16 17 18 18 17 16 16 15 16 16 15 14 16 17 18 18 19 18 18 19 18 17
3 3 2 2 2 2 2 2 2 1 2 3 3 4 5 6 5 5 5 4 4 3 3 4 2 0 1 1 4 3 3 3 2 2 2 1 1 2 3 4 5 6 7 8 10 10 11 11 11 11 12 13 13 14 15 16 17 18 18 17 18 18 18 18 19 20 20 19 19 18 17 17 17 17 16 16 18 19 20 20 19 18 19 19 19
3 3 3 2 2 3 2 2 2 2 4 5 5 6 7 7 6 5 6 5 3 2 2 4 3 1 1 3 4 4 3 3 2 2 1 1 2 3 4 5 6 7 7 8 9 10 10 10 10 11 11 12 13 14 14 15 17 18 18 18 18 19 19 19 20 21 22 22 22 22 20 19 19 19 18 17 18 19 20 21 21 19 20 20 20
4 4 3 3 3 3 2 2 3 4 5 6 6 7 7 7 8 6 7 6 4 4 1 3 3 2 2 5 5 4 4 2 2 1 0 1 3 4 5 6 6 7 7 8 8 8 9 9 10 10 10 10 11 12 13 14 15 16 18 18 19 20 21 21 21 22 24 24 25 25 23 22 21 21 20 20 19 19 20 21 22 21 21 21 20
4 4 3 3 3 3 3 4 5 5 5 6 6 7 8 8 9 8 7 5 6 5 2 4 4 3 3 6 5 5 4 3 2 0 2 2 4 4 5 5 6 6 7 7 8 9 9 9 9 9 10 10 10 10 11 12 13 14 16 17 18 19 20 21 22 23 24 25 25 27 26 24 23 22 22 23 22 22 22 22 21 22 22 22 22
5 4 4 4 3 3 5 6 6 5 5 6 7 9 9 9 8 7 5 3 3 2 4 5 4 5 4 6 6 5 4 2 1 1 2 3 3 4 5 5 6 7 7 8 9 9 10 10 10 10 11 11 11 11 11 11 12 13 14 15 16 17 18 19 21 22 24 25 25 26 26 26 25 24 24 24 25 25 25 24 22 21 23 24 24
4 4 4 3 3 4 6 7 6 6 7 7 8 9 9 8 6 4 2 0 1 4 6 5 4 5 4 4 4 4 3 2 0 2 2 3 4 5 6 6 7 8 9 10 11 11 12 12 13 13 13 13 13 14 13 13 12 12 12 13 14 16 17 18 20 21 22 24 25 25 26 25 25 26 25 25 26 27 27 27 25 22 22 23 23
4 4 3 3 4 6 7 8 8 7 8 8 8 8 7 5 2 1 1 2 2 4 7 7 5 4 5 4 3 3 2 1 1 2 3 5 6 7 7 8 9 10 11 12 12 13 14 15 16 15 15 15 15 16 16 15 15 15 14 14 14 14 15 17 18 20 21 23 24 25 26 26 25 25 25 25 26 28 30 30 29 26 24 23 22
4 4 3 4 6 7 7 8 8 8 9 8 7 5 3 1 3 4 4 3 3 3 5 8 8 6 6 6 5 5 2 1 1 2 5 7 8 8 9 10 10 11 12 13 14 14 15 16 16 16 16 17 17 17 17 17 17 17 17 17 17 16 16 16 17 18 19 21 23 24 25 27 27 25 24 25 26 28 31 31 31 29 27 26 24
4 4 5 6 6 6 7 8 7 7 7 5 3 0 2 4 5 5 6 4 3 3 4 7 10 10 8 6 6 7 5 4 3 4 6 8 9 9 10 11 11 13 14 14 15 15 16 16 17 18 18 18 19 19 18 19 19 19 19 19 19 19 19 18 18 18 19 19 21 22 24 26 27 27 26 25 26 28 30 32 33 32 28 27 27
4 5 6 6 6 6 7 7 7 5 2 1 3 4 5 5 5 5 5 5 4 4 5 6 9 11 9 6 5 4 3 7 6 5 5 8 11 10 11 12 12 14 14 15 15 16 17 17 18 19 19 19 19 19 19 20 20 20 21 21 21 21 21 21 21 21 20 21 21 21 22 23 25 27 28 26 26 28 30 31 32 33 31 29 28
6 6 6 7 6 6 6 6 4 1 3 5 6 7 6 5 5 5 5 6 6 6 7 7 7 8 9 7 6 2 5 7 5 4 5 6 11 11 11 12 13 15 14 15 15 16 16 16 18 19 19 20 20 21 21 22 22 22 22 23 24 24 23 23 23 23 23 23 23 23 23 23 23 24 26 28 28 28 29 30 31 32 31 30 30
6 6 6 6 5 6 6 4 1 4 6 8 8 7 6 5 5 6 5 7 9 9 9 10 10 9 9 7 6 6 7 7 5 4 5 3 6 10 12 13 14 15 14 15 15 15 16 16 17 19 20 21 22 23 23 24 25 25 25 26 26 26 27 26 26 26 25 25 25 25 25 25 25 24 24 26 29 30 30 29 29 31 31 30 30
6 6 5 4 5 5 4 1 4 7 8 8 8 7 6 6 6 7 7 8 9 9 10 10 10 11 10 9 9 9 9 8 7 5 4 4 2 6 9 13 17 16 15 13 14 15 16 17 18 20 22 23 24 24 23 25 25 26 26 26 26 27 27 28 28 28 28 28 28 27 27 27 26 25 25 25 27 30 31 31 28 29 30 30 30
5 4 3 4 5 4 2 3 7 9 9 8 7 7 7 8 8 9 9 10 9 9 10 11 11 11 11 11 11 11 11 10 10 9 7 5 4 3 4 9 12 14 15 12 12 15 16 19 20 20 21 22 23 23 24 26 27 27 27 27 27 27 27 28 29 29 29 29 30 30 29 29 28 27 27 26 26 27 30 32 30 28 29 30 31
4 3 4 5 5 3 3 6 9 9 9 8 8 8 9 9 10 10 10 10 10 10 10 11 11 11 11 12 11 11 11 12 12 12 10 7 6 5 5 4 4 9 15 14 15 19 20 22 20 19 21 21 21 22 24 27 29 29 29 29 29 28 28 28 29 30 30 30 30 30 30 30 30 29 28 28 27 27 29 31 32 31 29 30 31
4 4 5 5 4 3 6 9 10 9 9 8 9 9 10 11 10 11 11 11 11 11 11 11 11 11 12 12 12 11 12 13 13 13 12 10 7 6 7 6 3 5 11 16 19 19 20 20 17 17 21 21 22 24 25 27 30 31 31 31 31 30 30 30 31 32 32 31 31 30 29 29 30 30 30 30 29 28 28 29 32 33 31 30 31
6 7 7 4 2 6 9 11 10 10 9 9 10 11 11 11 11 11 11 11 11 11 11 11 11 11 11 11 11 11 12 13 13 12 12 12 10 8 8 7 6 5 8 13 14 13 15 17 15 15 18 20 23 25 27 29 29 30 31 32 33 33 34 34 35 35 34 33 32 30 29 28 28 29 30 31 30 29 29 29 31 33 34 32 31
8 7 4 2 7 10 11 11 10 10 10 10 12 13 12 11 11 11 12 12 11 11 11 11 11 11 11 11 11 11 12 12 12 12 12 13 12 11 9 8 7 6 6 7 7 8 11 15 15 16 17 20 25 27 28 30 30 31 33 34 35 35 36 36 35 36 36 34 32 30 28 27 26 27 28 29 31 30 30 29 30 31 34 35 33
10 5 3 7 10 12 11 10 10 10 11 12 13 13 12 11 11 12 12 12 11 11 10 10 10 11 11 11 11 11 11 12 12 12 13 13 14 14 12 8 6 6 7 6 6 8 11 15 15 15 18 22 26 28 29 30 31 32 33 34 35 35 36 36 36 36 35 34 32 30 28 26 25 25 25 26 28 29 30 30 30 30 32 35 36
10 4 7 10 12 12 11 10 10 11 12 12 13 13 12 11 11 12 12 12 11 10 9 9 10 10 10 10 10 11 12 12 13 14 14 14 15 16 15 11 6 7 7 6 7 9 12 16 15 15 20 24 26 28 29 30 31 32 32 33 35 35 35 36 37 37 36 33 32 32 30 29 27 26 25 26 27 28 29 30 30 30 30 32 36
7 8 11 12 13 11 11 11 11 12 12 13 13 13 12 11 11 12 12 11 10 9 9 9 10 10 10 10 10 11 13 14 14 15 15 16 16 16 17 15 11 10 10 8 9 11 14 17 17 17 21 24 27 29 30 31 32 33 34 34 35 35 36 37 38 38 37 35 34 33 33 31 30 29 29 29 28 29 30 31 31 32 31 31 33
6 13 14 14 13 12 11 11 11 12 12 13 13 12 11 11 11 11 11 10 9 9 9 9 10 10 10 10 11 13 14 15 15 15 15 16 16 16 16 17 15 12 11 11 11 12 17 20 18 19 24 26 28 31 32 34 35 36 37 37 37 37 38 40 41 41 40 38 36 34 34 34 33 32 32 31 30 29 30 32 33 33 34 33 33
11 15 14 14 13 12 11 11 12 12 12 13 13 12 11 10 11 11 10 9 8 8 9 9 10 10 10 11 12 13 14 15 15 15 16 16 16 16 16 16 16 14 12 12 11 12 18 21 19 21 25 29 30 32 35 34 34 36 38 40 40 39 41 44 44 43 42 39 36 35 35 37 37 36 34 33 32 30 29 30 31 32 33 32 32
15 16 14 14 13 12 12 11 12 12 12 12 12 11 10 10 10 10 10 9 7 8 9 9 10 10 11 11 12 13 14 15 15 15 15 16 15 15 15 14 15 16 14 11 12 14 17 20 21 22 24 29 32 32 32 31 30 33 38 41 41 40 43 45 43 41 40 38 37 38 39 40 42 40 38 35 33 31 29 28 29 29 29 30 31
17 15 14 14 12 13 13 12 13 12 12 12 12 11 10 10 10 10 9 8 7 8 9 9 10 11 11 12 13 13 14 14 15 15 15 15 15 14 13 11 10 13 14 10 12 16 19 20 22 23 24 29 31 29 28 30 31 32 35 39 39 40 41 40 38 38 38 36 38 41 42 43 43 42 40 37 34 32 31 30 29 29 29 30 31
17 15 15 14 13 13 13 12 13 12 12 12 11 11 10 10 10 9 8 8 7 8 9 9 10 11 11 12 13 13 14 14 14 14 13 14 14 12 11 9 8 10 12 11 11 16 20 22 22 23 24 27 30 28 27 30 31 31 35 38 36 36 36 35 36 36 35 35 38 41 42 42 41 40 39 38 36 34 33 32 30 30 29 29 29
17 16 16 15 14 14 13 13 13 12 12 11 11 10 9 9 9 9 9 8 7 8 9 9 10 10 11 12 13 13 14 13 13 13 12 13 12 10 10 9 9 11 12 12 12 15 20 23 24 23 23 26 28 27 27 29 30 31 34 36 34 32 33 34 35 35 35 36 38 41 42 41 40 40 40 39 37 36 35 34 33 32 31 30 29
18 18 17 15 15 14 14 13 12 12 11 10 11 10 9 9 8 9 9 8 8 8 9 9 9 10 11 12 12 13 13 13 13 12 12 13 11 11 12 10 11 14 15 15 14 15 19 23 25 23 23 24 26 26 26 27 29 31 33 34 33 32 33 36 36 34 36 38 40 41 40 39 39 39 39 38 38 37 37 37 35 34 33 32 30
18 19 17 16 16 15 15 14 12 11 11 10 10 10 10 9 8 8 8 8 8 9 8 8 9 9 10 11 12 12 12 12 12 11 11 13 12 12 12 11 12 15 18 18 17 17 19 22 25 24 23 23 24 26 26 27 29 31 31 32 34 34 35 35 34 35 37 38 38 39 38 37 37 37 37 37 37 37 36 37 36 35 34 32 31
18 19 18 18 17 16 15 14 12 11 11 10 10 9 9 9 9 9 9 9 9 8 8 8 9 9 10 10 11 11 11 11 11 10 11 12 13 13 13 13 14 17 19 19 19 19 19 21 24 24 23 22 24 25 25 28 32 33 30 30 34 36 36 34 33 35 37 36 35 35 35 34 34 35 37 37 37 36 35 35 35 34 33 31 30
19 19 18 18 18 16 15 14 13 12 11 10 10 9 9 9 9 9 9 10 9 8 8 8 8 9 9 9 10 10 10 10 11 10 11 12 13 13 14 15 16 18 19 19 20 21 20 20 22 23 23 23 23 24 25 29 32 33 34 35 36 36 34 35 35 36 37 35 33 33 33 33 34 35 36 37 37 36 35 34 34 32 32 31 29
20 19 18 18 18 17 16 15 14 13 12 11 11 10 9 9 10 9 10 10 9 8 8 7 7 7 8 8 9 9 9 10 10 10 11 12 13 13 14 16 17 19 20 20 21 22 21 20 21 22 23 23 23 24 27 29 28 30 34 39 42 40 35 34 36 37 36 34 32 32 33 34 35 34 35 35 35 34 34 33 32 31 30 30 29
19 18 18 18 18 17 17 16 15 14 12 12 11 11 10 10 10 10 9 9 8 7 7 6 6 6 6 6 7 7 8 9 9 10 11 12 13 12 14 16 18 19 20 21 22 23 22 22 21 21 23 24 23 25 28 29 30 31 34 37 41 42 38 35 36 36 36 34 33 34 34 34 32 31 32 33 32 31 32 31 29 27 27 26 27
19 17 17 18 17 18 18 17 16 15 14 13 12 12 12 11 10 10 9 8 7 6 6 5 5 5 4 4 5 5 7 9 9 9 10 12 13 13 14 17 18 19 21 22 23 23 24 23 21 22 23 24 25 27 29 29 31 35 37 37 38 41 39 36 35 34 34 35 35 35 34 31 28 29 31 31 30 29 29 28 26 25 24 24 24
18 18 18 17 17 17 17 17 17 15 15 14 14 13 13 13 11 10 9 8 7 6 4 3 3 3 2 2 4 5 7 8 9 9 11 12 13 14 15 16 18 19 21 22 23 24 24 24 22 23 23 24 27 28 28 29 32 35 38 39 39 40 38 37 38 36 34 36 38 35 32 30 28 29 31 30 30 29 27 27 25 25 26 27 28
19 19 19 18 17 17 17 17 17 16 15 15 13 13 14 14 13 11 9 8 7 6 5 3 2 1 1 1 3 5 7 8 8 9 11 12 12 13 14 15 17 19 21 22 23 24 25 25 25 24 23 25 29 29 27 30 34 35 36 38 38 38 38 40 42 41 38 39 37 33 32 30 28 30 31 31 32 30 28 28 28 29 29 30 31
19 19 19 18 17 17 17 17 17 16 16 15 14 13 13 13 13 12 9 8 7 6 5 4 3 3 2 1 2 4 6 6 7 9 11 12 12 12 13 14 17 18 19 21 23 25 26 27 27 26 24 27 30 30 30 33 35 35 36 37 35 35 36 39 41 43 42 39 35 33 34 31 28 30 34 33 32 30 28 29 31 32 31 30 31
21 20 19 19 19 18 18 18 17 17 16 15 14 14 13 12 12 12 9 9 8 7 7 6 6 6 4 1 1 4 5 6 7 8 9 11 12 13 14 16 17 18 18 20 23 24 26 26 26 26 27 28 30 30 31 33 35 36 37 38 35 34 35 37 39 43 41 37 34 34 34 32 31 33 35 34 31 30 29 30 31 32 33 33 32
22 20 19 19 19 19 19 19 18 18 17 15 14 13 13 12 11 11 10 10 10 10 8 7 7 6 4 3 1 1 4 5 6 7 9 10 11 13 14 15 16 17 18 20 22 23 24 25 25 26 27 27 28 29 29 31 35 36 38 39 37 35 36 36 38 40 37 32 30 31 33 34 34 34 34 34 32 30 29 30 31 32 33 33 31
20 19 19 20 20 20 20 20 19 19 17 15 14 13 12 12 11 12 11 11 11 10 8 7 6 5 4 3 2 1 3 4 6 7 8 9 10 11 13 14 14 16 18 20 21 21 22 24 24 24 25 25 26 27 28 31 35 37 37 36 34 34 34 35 36 36 33 29 24 27 35 37 34 33 34 34 33 32 30 29 29 28 28 27 26
19 20 21 21 20 21 21 21 20 18 16 15 14 13 13 13 13 12 12 10 9 8 7 6 6 5 4 3 2 1 2 4 5 7 8 9 10 11 12 13 14 15 17 19 20 20 21 22 23 22 22 23 24 27 30 33 36 39 37 33 32 32 33 34 35 34 33 29 22 28 40 40 33 33 35 35 35 34 30 27 25 25 25 24 23
21 22 22 21 21 21 21 21 20 18 17 16 15 14 14 14 13 12 11 9 8 8 7 6 6 5 4 3 2 1 2 3 5 7 8 9 10 11 13 14 14 15 16 18 19 19 20 21 21 21 22 24 26 29 32 34 35 37 35 33 33 33 33 35 36 35 33 29 25 32 41 40 35 35 34 33 33 31 29 26 24 24 24 20 18
22 23 22 21 22 22 21 21 20 18 17 16 15 15 14 13 13 11 9 9 9 9 7 7 6 5 4 4 3 1 1 3 5 7 9 10 11 12 13 14 15 16 18 19 19 19 20 21 22 23 25 27 29 30 31 31 32 33 31 31 32 32 31 34 36 35 31 28 32 39 41 39 38 38 36 36 34 30 29 27 24 24 23 19 15
22 23 23 22 22 22 22 21 20 19 18 16 15 14 13 13 13 12 10 10 11 9 8 7 7 5 4 4 3 1 1 3 5 7 9 10 11 12 13 15 16 17 19 20 21 22 23 24 25 26 26 27 28 27 27 28 30 31 30 30 30 30 30 32 35 37 34 33 41 46 43 40 41 40 40 41 41 39 36 31 26 25 23 18 14
Wind_Direction
192 183 162 149 146 125 136 129 123 119 98 96 82 58 39 3 1 354 341 334 327 339 343 344 345 355 7 341 336 336 331 349 351 356 336 317 322 326 327 328 327 328 330 332 333 334 334 334 339 344 344 343 344 343 341 340 335 332 330 327 325 322 319 316 313 317 323 319 309 306 306 310 311 309 306 306 307 307 305 299 289 282 278 271 262
183 171 163 141 138 135 144 143 132 114 81 77 64 59 46 3 1 1 350 340 336 347 348 354 350 353 9 345 337 338 332 353 12 4 341 328 331 329 328 329 330 330 331 334 335 337 335 332 331 331 334 337 339 339 339 338 334 331 331 332 331 328 322 316 310 309 314 317 315 308 303 307 311 313 312 308 304 303 305 306 300 290 281 276 269
171 168 160 148 149 147 152 143 114 93 84 77 61 55 48 10 352 335 333 331 326 337 342 355 0 357 4 352 344 337 328 333 342 343 339 347 359 339 329 328 329 331 332 334 336 338 337 336 335 333 335 335 335 338 338 335 331 328 328 332 334 333 330 322 314 308 307 309 313 311 303 299 303 309 314 314 308 301 302 307 308 301 291 281 272
161 163 162 161 166 161 159 141 118 119 108 77 54 41 17 344 329 320 322 324 322 330 337 346 4 16 10 360 356 350 339 335 331 332 326 328 16 3 338 332 328 328 331 334 336 338 339 340 339 337 336 333 329 327 326 325 323 323 326 327 326 325 325 326 321 313 308 306 308 310 306 299 295 296 301 310 311 304 301 303 304 302 298 289 277
155 158 167 174 178 175 153 138 148 137 105 44 26 21 11 337 331 336 337 338 331 331 337 345 356 6 20 9 348 342 336 330 327 320 308 300 296 323 344 348 341 333 331 332 334 335 335 335 334 332 329 326 321 315 312 313 314 315 317 317 318 316 311 314 316 312 310 306 305 306 304 301 296 291 290 296 303 303 300 297 297 298 298 295 286
166 166 172 176 171 177 154 148 168 137 51 11 6 1 354 334 338 343 340 341 331 328 334 348 5 357 359 338 308 308 306 304 302 291 284 282 279 278 290 313 333 331 331 330 330 328 326 325 323 320 316 314 311 307 305 305 306 308 309 310 311 309 304 302 302 305 307 306 306 305 303 300 298 292 285 285 291 295 296 292 291 295 295 295 295
183 176 172 164 160 192 189 187 211 216 11 1 348 331 321 321 332 332 326 332 329 336 342 337 353 354 5 337 293 286 280 270 254 252 257 262 273 282 290 300 313 324 329 327 324 323 320 317 315 312 310 309 307 305 304 303 303 305 305 307 306 304 301 299 299 302 304 304 305 305 303 301 299 294 284 281 284 285 289 290 288 291 292 291 294
184 181 175 165 176 221 221 216 249 288 351 351 338 323 318 319 321 315 307 316 327 337 334 304 285 40 53 286 270 262 254 252 233 223 223 231 270 297 308 316 321 323 324 321 320 320 319 318 317 315 313 311 308 306 304 303 302 303 303 303 304 304 302 300 300 300 301 302 302 304 303 302 300 294 282 275 277 278 278 279 280 283 284 284 285
180 182 174 169 190 230 238 233 264 310 336 334 329 319 318 318 313 304 295 300 315 315 309 284 267 87 116 240 247 244 233 224 205 200 201 252 308 319 322 323 326 326 324 323 324 326 328 329 326 323 319 314 310 306 304 303 301 301 302 301 299 299 301 302 302 301 301 302 302 302 303 302 301 297 287 275 274 277 276 274 273 273 275 276 277
180 185 180 184 194 227 249 253 274 310 324 320 318 312 313 308 300 294 286 288 286 273 261 258 252 98 153 227 227 221 213 200 183 175 269 319 325 324 328 332 335 334 334 336 340 343 344 344 342 339 334 327 321 316 311 308 305 304 303 302 299 297 297 298 299 300 300 301 302 302 302 302 300 298 294 283 276 274 275 275 272 269 269 271 273
181 190 193 201 201 226 255 271 288 303 309 313 315 310 307 298 293 292 288 288 277 265 187 207 212 116 161 213 211 204 192 185 179 266 324 327 332 337 345 351 352 350 354 357 358 359 359 358 358 355 351 347 341 335 328 322 317 315 313 310 307 303 300 299 299 299 298 299 299 298 299 299 297 296 295 291 283 277 276 275 272 268 266 268 270
188 194 201 209 210 238 263 280 292 299 303 311 312 308 306 300 299 300 299 302 274 224 148 184 175 120 164 201 198 200 191 185 213 321 331 346 357 9 14 12 14 13 12 12 10 9 7 9 11 11 8 2 359 354 347 341 333 327 323 319 316 313 309 307 304 302 301 299 298 297 296 295 295 293 292 291 288 283 280 278 275 271 268 267 267
201 203 209 215 232 257 278 295 305 309 311 313 309 305 305 303 304 309 302 309 170 149 147 159 149 132 150 177 184 189 184 177 305 333 1 33 33 30 30 28 28 26 23 20 17 15 12 13 14 15 14 10 7 4 359 355 349 342 334 325 321 318 315 313 310 308 306 303 302 300 298 295 293 291 290 289 287 285 282 280 279 277 275 273 269
204 207 217 233 264 285 306 318 318 318 316 314 311 306 302 297 295 90 127 125 125 159 164 161 174 184 159 152 162 167 199 270 327 13 53 55 44 36 36 39 36 30 28 25 21 18 15 14 13 12 11 10 8 5 2 359 355 350 346 339 332 325 320 315 311 310 308 306 305 303 301 299 296 292 289 286 285 283 282 282 281 281 281 280 275
202 218 244 269 293 312 324 325 321 318 316 312 310 305 291 193 133 126 126 123 130 175 178 167 178 206 200 194 187 178 192 294 340 63 74 55 43 40 42 43 38 33 30 27 24 20 17 14 12 10 9 9 7 5 2 359 355 352 349 346 342 337 332 325 319 314 311 308 307 305 303 301 300 297 293 288 284 281 280 281 281 281 283 283 279
225 246 271 299 324 334 329 326 324 320 314 309 308 239 143 128 127 129 131 135 155 174 175 175 176 186 207 226 219 207 189 160 141 66 61 49 40 37 40 41 34 31 30 27 23 19 16 14 11 10 10 9 8 5 2 359 355 352 350 347 345 342 339 335 331 325 320 315 311 308 304 302 301 301 300 294 287 283 280 279 279 278 279 280 279
263 264 292 324 341 338 331 330 327 322 315 167 137 134 128 124 129 129 130 136 150 159 158 172 179 184 199 218 225 227 148 152 148 92 67 45 41 36 33 34 33 31 28 25 23 19 17 14 12 12 10 9 7 4 2 359 355 353 350 347 346 344 341 339 336 332 328 324 318 314 309 304 302 301 302 300 294 287 283 281 280 278 276 275 275
264 281 318 340 341 336 335 332 327 333 139 139 133 129 125 129 134 127 129 131 132 142 139 138 152 169 182 193 202 172 123 159 167 127 119 59 41 38 35 32 31 33 29 25 22 20 20 17 14 13 9 6 5 4 3 360 357 354 352 350 348 345 342 340 337 335 331 328 323 319 314 309 305 301 300 300 298 293 289 285 283 282 279 274 271
278 304 327 338 336 334 330 325 316 144 141 135 129 129 130 134 134 127 132 128 124 133 131 124 127 132 138 146 145 127 128 152 171 157 150 112 33 31 37 36 34 33 30 27 22 18 19 18 15 12 9 6 5 5 4 0 357 355 353 352 348 344 342 340 338 335 332 328 325 322 318 313 309 304 299 296 296 296 294 290 286 284 283 278 272
308 321 331 333 330 327 316 282 157 148 139 132 128 130 132 132 132 127 126 123 121 129 127 120 120 113 107 106 103 101 104 116 131 134 138 145 68 24 23 28 34 32 29 28 22 18 17 14 14 13 8 6 6 4 1 359 356 353 352 349 345 342 340 338 336 334 331 328 325 322 319 316 312 308 301 295 293 294 295 294 290 286 284 281 276
337 332 334 327 319 315 288 177 157 147 136 133 131 131 132 130 129 123 119 118 116 118 115 110 106 101 97 96 93 93 90 88 93 93 98 111 90 56 8 14 24 24 26 28 21 21 19 14 15 15 10 7 4 360 356 354 352 351 350 346 343 342 340 338 336 334 331 328 326 322 319 316 313 309 304 299 294 292 292 293 294 290 284 282 278
345 325 323 318 310 296 210 169 153 142 135 134 133 131 129 127 124 120 117 115 111 107 104 100 97 96 96 96 92 88 83 75 73 74 80 83 69 59 42 26 14 11 18 22 20 22 19 15 14 10 10 8 1 356 353 351 351 349 346 343 342 342 339 337 336 335 333 330 327 323 319 315 311 308 304 301 297 293 291 291 293 292 287 282 279
332 312 314 310 292 227 176 159 146 140 138 136 133 130 128 127 123 120 116 111 107 103 100 99 97 93 89 88 86 82 78 73 69 67 68 70 62 46 37 39 43 8 8 13 17 21 17 12 7 360 3 3 358 355 353 351 351 347 342 341 341 339 337 337 337 336 335 333 329 324 319 314 309 305 302 300 296 293 291 289 289 290 289 285 280
325 314 309 296 216 176 160 150 145 142 139 135 133 132 130 128 125 121 116 111 108 104 102 100 94 89 84 81 80 77 75 71 68 67 65 64 60 46 33 35 41 15 4 10 12 13 11 8 2 356 357 356 353 353 353 353 349 343 341 341 339 338 339 339 338 337 335 333 330 325 320 315 309 304 299 297 295 292 289 286 285 286 287 287 282
319 314 297 209 165 160 153 148 146 142 138 137 135 132 129 126 124 120 116 112 109 103 100 96 91 88 83 81 79 75 73 70 68 66 64 62 59 52 39 30 33 20 10 17 14 6 4 2 359 356 354 352 352 352 353 351 346 344 344 341 339 339 339 338 336 335 334 331 328 325 322 318 311 305 299 295 294 292 288 285 283 282 283 284 283
312 302 194 163 159 156 151 146 144 140 138 138 134 128 125 125 124 120 116 111 105 99 96 94 93 88 84 82 80 76 73 70 68 65 63 60 57 54 44 29 27 25 19 20 17 9 0 358 358 355 352 352 352 351 350 349 346 346 344 340 339 339 336 334 334 334 332 329 328 327 324 320 314 307 301 296 293 291 288 285 282 280 279 280 282
306 248 169 158 157 155 149 145 144 142 137 136 132 126 124 125 124 118 111 105 101 99 98 96 92 87 84 81 77 76 72 69 66 63 61 59 54 53 48 37 24 17 22 20 12 8 360 357 358 354 351 351 351 349 349 350 348 346 344 341 340 337 334 335 335 333 332 330 328 326 324 321 315 309 302 296 292 289 287 286 283 280 277 276 279
280 188 164 158 157 154 150 147 146 142 136 134 131 125 124 124 121 113 105 102 101 101 100 97 92 86 83 80 75 73 69 65 63 59 58 57 53 50 47 44 34 11 8 11 7 2 358 358 357 351 350 350 350 350 349 350 350 348 347 345 341 338 337 337 335 333 331 330 328 326 325 323 319 314 308 302 295 289 286 286 284 282 279 274 274
212 171 164 162 158 154 153 149 146 141 137 136 130 125 125 121 116 109 105 105 103 102 102 98 93 86 82 79 74 71 66 63 60 57 56 55 51 47 43 43 41 23 5 359 358 355 356 359 354 347 351 354 351 351 352 352 351 350 349 348 344 341 340 338 336 334 331 328 328 327 326 325 324 320 316 310 303 294 287 284 283 282 280 275 272
181 167 166 164 159 156 154 150 147 143 139 137 130 125 123 118 115 111 108 107 105 106 105 99 93 87 83 79 74 70 67 63 61 58 55 53 50 45 39 36 34 32 18 358 348 349 351 353 351 345 349 354 353 353 354 351 345 344 347 349 346 342 340 340 338 336 332 327 325 325 325 324 323 322 319 314 309 301 293 286 282 280 279 276 272
173 167 166 163 160 158 155 153 150 144 139 136 130 126 122 119 117 114 112 111 111 109 104 98 93 86 83 79 75 71 67 63 62 59 56 54 52 44 37 30 22 22 22 360 338 344 346 343 345 345 345 352 355 353 348 343 337 338 344 346 343 339 339 339 335 331 328 324 322 322 322 321 320 319 317 313 309 304 298 293 287 283 281 278 272
171 167 165 163 163 162 158 154 149 142 140 136 131 126 124 124 122 118 118 118 114 110 102 96 91 87 84 79 76 73 70 66 63 61 57 52 50 43 35 30 14 9 12 355 325 335 345 342 340 342 342 348 353 348 341 339 338 337 339 341 338 335 334 331 326 326 325 321 319 318 317 316 315 314 313 311 307 303 299 296 292 287 284 280 274
171 168 168 166 166 165 159 153 149 144 142 138 131 128 128 130 129 126 125 121 117 110 100 95 92 90 88 83 80 78 75 72 66 62 58 52 47 40 32 25 11 1 359 351 327 326 341 347 343 341 342 345 347 345 339 336 336 334 335 337 333 328 326 323 322 323 320 316 313 311 311 312 312 312 312 310 307 303 300 297 294 291 286 282 278
173 172 173 171 168 166 160 156 154 148 144 140 134 132 134 137 137 134 130 125 120 111 102 99 95 93 91 87 84 81 76 73 69 62 58 55 46 35 30 20 7 2 356 350 337 324 333 345 346 341 339 340 342 342 337 332 332 331 331 332 328 324 323 322 320 319 317 314 310 307 308 311 311 311 310 309 306 304 301 299 296 293 289 284 280
176 175 175 172 169 167 163 161 159 153 148 144 140 138 139 142 142 138 134 131 123 114 108 105 98 93 92 89 85 82 77 72 67 58 52 52 45 32 28 17 3 4 3 358 347 331 329 340 346 341 334 336 337 336 333 331 330 328 328 328 325 323 323 322 320 318 317 314 309 307 309 309 309 308 308 306 304 302 300 299 297 294 291 286 281
177 176 174 173 172 169 166 165 163 157 153 150 147 145 145 146 145 140 137 134 128 125 123 116 105 98 95 91 87 82 78 72 64 55 48 46 43 32 23 14 3 2 6 4 353 340 333 336 342 340 333 331 332 332 333 330 328 327 327 326 324 324 324 322 320 319 318 316 312 309 308 308 308 307 305 303 302 301 299 299 298 296 292 288 283
177 178 177 174 173 171 167 167 167 163 158 155 152 151 151 150 148 145 143 139 139 140 133 120 108 101 97 96 91 82 77 72 64 55 47 43 39 30 19 14 7 4 6 4 354 348 341 334 336 336 333 330 330 332 334 331 329 329 327 325 325 325 325 323 320 320 321 319 316 312 310 310 310 307 304 304 303 302 300 299 298 296 294 290 286
179 181 180 175 171 170 168 169 172 169 164 159 157 157 158 157 154 153 150 148 149 145 130 116 106 100 98 96 90 81 74 69 61 54 47 41 36 24 14 11 8 6 6 1 356 353 345 336 334 333 332 332 331 332 333 332 331 330 329 327 327 327 326 323 322 322 322 320 316 314 313 313 312 308 307 307 306 304 303 301 299 296 294 291 288
181 182 179 173 170 170 172 174 175 175 170 165 163 164 165 164 161 159 156 154 153 146 133 124 113 101 96 91 84 77 72 67 58 50 43 38 33 21 10 8 7 8 6 1 358 355 347 340 337 334 332 333 332 331 331 333 331 330 331 329 329 329 327 324 324 324 324 322 318 315 315 314 313 311 310 309 308 307 306 303 299 296 295 293 290
181 181 178 175 172 173 176 177 178 179 176 171 170 169 169 169 166 161 159 157 154 145 134 130 119 101 90 86 82 74 69 65 56 46 40 34 30 19 7 5 7 7 6 2 0 357 351 344 339 336 334 333 333 332 332 335 334 332 332 329 327 327 326 324 325 326 326 325 322 320 319 318 316 314 312 311 309 307 306 303 299 297 295 293 293
182 181 181 180 176 177 180 180 181 183 179 177 178 173 171 171 167 163 162 160 157 147 135 130 116 101 90 79 76 72 64 57 49 41 35 29 26 18 8 5 5 6 7 5 3 359 354 347 340 337 336 334 335 335 335 336 334 331 331 330 327 325 325 324 326 327 328 327 324 321 320 320 318 315 313 312 310 308 306 304 302 299 296 291 289
184 182 183 184 182 183 184 183 185 185 183 184 184 177 172 170 168 168 169 164 161 159 153 143 119 104 102 54 47 57 57 49 39 34 32 27 22 17 10 5 4 6 7 6 4 1 356 350 343 340 337 334 334 336 335 334 332 331 332 332 329 327 327 327 327 329 330 329 325 321 321 323 320 315 313 312 311 309 306 302 297 292 287 281 278
185 183 182 185 187 188 189 188 189 188 189 189 185 180 176 171 167 169 173 172 169 170 166 157 155 137 134 350 17 39 42 36 30 29 30 28 24 19 14 8 7 8 8 5 5 3 359 355 349 343 337 333 335 337 334 333 334 334 333 332 330 329 331 331 330 329 330 331 326 319 319 323 321 315 313 313 312 309 304 299 293 288 283 278 274
187 186 186 187 190 193 193 193 191 192 195 192 184 182 179 173 169 166 172 184 179 177 178 170 187 220 230 267 7 34 28 22 25 23 21 21 21 19 15 10 10 9 6 4 4 3 1 357 352 346 340 336 337 338 337 337 338 337 335 335 332 331 330 329 327 327 329 331 328 319 317 322 322 316 312 313 312 309 303 298 295 293 290 284 278
189 190 193 192 192 197 197 195 194 196 198 193 186 185 180 176 173 165 172 192 186 182 192 187 188 200 201 221 356 19 13 15 24 22 20 20 18 16 13 10 8 3 0 2 3 2 0 357 352 348 344 340 339 341 341 343 345 342 339 337 334 330 329 327 326 326 327 330 328 320 316 320 323 317 312 313 313 308 303 299 294 291 289 286 281
191 192 195 191 192 199 199 196 197 200 198 192 189 187 179 178 176 166 176 197 193 189 195 192 191 191 179 177 194 3 4 12 18 17 20 20 17 15 12 8 2 356 355 360 0 359 359 357 352 348 346 344 341 342 344 350 353 349 343 337 332 329 327 327 326 326 328 330 327 319 316 320 324 319 313 314 314 309 306 302 298 295 292 289 284
195 192 190 190 194 199 198 198 200 201 198 192 189 186 179 178 179 173 180 197 197 192 195 193 192 187 175 173 165 55 7 11 12 11 12 10 9 10 6 1 357 353 352 353 353 355 357 357 353 348 346 345 343 344 349 355 358 355 347 337 330 326 326 328 330 329 330 333 329 322 320 323 326 322 316 317 316 311 309 308 304 302 300 298 295
192 187 188 191 195 197 198 199 201 199 197 192 188 185 182 182 183 182 187 195 196 194 196 199 197 188 183 181 157 69 8 9 8 6 3 359 2 4 359 354 351 349 348 346 345 349 351 353 352 348 346 346 345 348 356 359 360 356 349 337 331 329 330 332 334 333 335 339 336 329 327 326 327 324 319 320 321 316 313 313 310 307 304 299 294
188 187 189 193 195 196 197 198 199 198 196 193 189 187 186 185 185 188 190 193 198 202 203 203 199 193 193 194 184 162 20 5 357 360 358 355 358 360 354 350 349 348 346 341 340 343 345 346 346 344 346 348 350 355 359 359 359 356 346 335 333 335 334 335 335 333 337 342 340 335 332 330 330 328 322 322 324 320 317 316 312 313 312 301 287
188 189 191 193 194 196 197 197 198 197 196 194 191 189 189 188 188 190 190 196 207 210 206 204 200 197 204 213 212 194 28 351 350 358 356 353 358 357 350 349 351 348 342 339 340 341 342 343 344 347 351 354 357 357 353 351 354 355 346 336 335 336 335 335 335 331 334 343 347 344 337 334 337 339 333 328 326 323 323 320 316 317 319 313 300
192 192 191 192 194 195 195 196 197 197 196 194 192 191 191 191 192 190 187 200 212 208 203 203 200 198 208 219 230 240 340 341 351 356 352 353 357 352 350 352 351 345 341 341 342 343 346 349 350 350 350 350 353 351 344 343 350 355 353 345 340 337 336 336 336 334 332 340 350 350 343 339 344 347 343 338 332 330 333 332 324 322 322 316 306